Location: *
(1.3500°S, 147.5000°W)
Time: 14:00:26
(UTC+00:00)

GPS 2-17 Rocket1 - Pass Details

Date: 07 April 2020
Orbit: 571 x 659 km, 20.3° (Epoch: 04 June)

Event Time Altitude Azimuth Distance (km) Brightness Sun altitude
Rises 04:41:28 0° 283° (WNW) 2,909 8.5 -12.4°
Reaches altitude 10° 04:43:51 10° 279° (W) 2,016 7.2 -13.0°
Maximum altitude 04:48:30 56° 201° (SSW) 766 3.6 -14.2°
Enters shadow 04:51:46 19° 128° (SE) 1,519 4.6 -15.0°
